This demonstration page uses our WeatherBlox Daily Observations layout. Learn more.

Left ArrowRight Arrow

40.92501, -98.34201

Hourly Observations for June 15, 2020

Temp ( °F °C ) Dew Point ( °F °C ) Humidity (%) Winds ( mph kmh ) Pressure ( in mb ) Visibility ( mi km ) Precip ( " mm )
12:53 am 00:53 Clear 79 26.1 55 12.8 44 44 S 23 37 29.93 1014 10 16 0.00 0.00
1:53 am 01:53 Clear 78 25.6 54 12.2 43 43 S 21 33 29.95 1014 10 16 0.00 0.00
2:53 am 02:53 Clear 76 24.4 53 11.7 45 45 S 20 31 29.95 1014 10 16 0.00 0.00
3:53 am 03:53 Clear 76 24.4 52 11.1 43 43 S 17 28 29.96 1014 10 16 0.00 0.00
4:53 am 04:53 Clear 76 24.4 52 11.1 43 43 SSW 18 30 29.97 1015 10 16 0.00 0.00
5:53 am 05:53 Clear 73 22.8 52 11.1 48 48 S 15 24 29.99 1016 10 16 0.00 0.00
6:53 am 06:53 Sunny 71 21.7 53 11.7 53 53 S 10 17 30.01 1016 10 16 0.00 0.00
7:53 am 07:53 Sunny 79 26.1 53 11.7 41 41 SSW 14 22 30.02 1017 10 16 0.00 0.00
11:53 am 11:53 Sunny 91 32.8 53 11.7 27 27 S 24 39 29.91 1013 10 16 0.00 0.00
12:53 pm 12:53 Sunny 89 31.7 52 11.1 28 28 S 25 41 29.91 1013 10 16 0.00 0.00
1:53 pm 13:53 Sunny 93 33.9 51 10.6 24 24 S 23 37 29.88 1012 10 16 0.00 0.00
2:53 pm 14:53 Sunny 96 35.6 49 9.4 20 20 S 25 41 29.86 1011 10 16 0.00 0.00
3:53 pm 15:53 Sunny 96 35.6 48 8.9 19 19 S 23 37 29.87 1012 10 16 0.00 0.00
4:53 pm 16:53 Sunny 95 35 47 8.3 19 19 S 24 39 29.87 1012 10 16 0.00 0.00
5:53 pm 17:53 Sunny 92 33.3 46 7.8 21 21 S 22 35 29.98 1015 10 16 0.00 0.00
6:53 pm 18:53 Sunny 90 32.2 48 8.9 24 24 SSE 17 28 29.99 1016 10 16 0.00 0.00
7:53 pm 19:53 Sunny 87 30.6 49 9.4 27 27 SSE 20 31 30.00 1016 10 16 0.00 0.00
8:53 pm 20:53 Sunny 84 28.9 50 10 31 31 SSE 16 26 30.00 1016 10 16 0.00 0.00
9:53 pm 21:53 Clear 80 26.7 51 10.6 37 37 SSE 14 22 30.01 1016 10 16 0.00 0.00
10:53 pm 22:53 Clear 80 26.7 52 11.1 38 38 SSE 20 31 30.02 1017 10 16 0.00 0.00
11:53 pm 23:53 Clear 79 26.1 54 12.2 42 42 S 20 31 30.02 1017 10 16 0.00 0.00

Powered by AerisWeather